Time,TemperatureF,DewpointF,PressureIn,WindDirection,WindDirectionDegrees,WindSpeedMPH,WindSpeedGustMPH,Humidity,HourlyPrecipIn,Conditions,Clouds,dailyrainin,SoftwareType,DateUTC
2013-06-22 00:03:00,64.0,60.0,30.02,ESE,112,0.0,-999.0,87,-99.99,,,0.00,Acu-Link.com,2013-06-22 04:03:00,
2013-06-22 00:18:00,63.7,60.1,30.02,SE,135,0.0,-999.0,88,-99.99,,,0.00,Acu-Link.com,2013-06-22 04:18:00,
2013-06-22 00:33:00,63.1,59.5,30.02,NE,45,0.0,-999.0,88,-99.99,,,0.00,Acu-Link.com,2013-06-22 04:33:00,
2013-06-22 00:48:00,62.8,59.5,30.02,NE,45,0.0,-999.0,89,-99.99,,,0.00,Acu-Link.com,2013-06-22 04:48:00,
2013-06-22 01:03:00,62.8,59.8,30.02,ENE,67,0.0,-999.0,90,-99.99,,,0.00,Acu-Link.com,2013-06-22 05:03:00,
2013-06-22 01:18:00,62.4,59.4,30.01,NNE,22,0.0,-999.0,90,-99.99,,,0.00,Acu-Link.com,2013-06-22 05:18:00,
2013-06-22 01:33:00,62.2,59.2,30.02,East,90,0.0,-999.0,90,-99.99,,,0.00,Acu-Link.com,2013-06-22 05:33:00,
2013-06-22 01:48:00,61.7,58.4,30.03,East,90,0.0,-999.0,89,-99.99,,,0.00,Acu-Link.com,2013-06-22 05:48:00,
2013-06-22 02:04:00,61.5,58.2,30.03,NE,45,0.0,-999.0,89,-99.99,,,0.00,Acu-Link.com,2013-06-22 06:04:00,
2013-06-22 02:19:00,61.5,58.5,30.03,ENE,67,0.0,-999.0,90,-99.99,,,0.00,Acu-Link.com,2013-06-22 06:19:00,
2013-06-22 02:34:00,61.3,58.3,30.03,NNE,22,0.0,-999.0,90,-99.99,,,0.00,Acu-Link.com,2013-06-22 06:34:00,
2013-06-22 02:49:00,60.8,57.8,30.03,ESE,112,0.0,-999.0,90,-99.99,,,0.00,Acu-Link.com,2013-06-22 06:49:00,
2013-06-22 03:04:00,60.6,57.6,30.02,East,90,0.0,-999.0,90,-99.99,,,0.00,Acu-Link.com,2013-06-22 07:04:00,
2013-06-22 03:19:00,60.4,57.5,30.02,ESE,112,0.0,-999.0,90,-99.99,,,0.00,Acu-Link.com,2013-06-22 07:19:00,
2013-06-22 03:34:00,60.6,58.0,30.02,ENE,67,0.0,-999.0,91,-99.99,,,0.00,Acu-Link.com,2013-06-22 07:34:00,
2013-06-22 03:49:00,60.6,58.0,30.02,ESE,112,0.0,-999.0,91,-99.99,,,0.00,Acu-Link.com,2013-06-22 07:49:00,
2013-06-22 04:05:00,60.8,58.2,30.02,South,180,0.0,-999.0,91,-99.99,,,0.00,Acu-Link.com,2013-06-22 08:05:00,
2013-06-22 04:21:00,60.8,58.2,30.01,NNE,22,0.0,-999.0,91,-99.99,,,0.00,Acu-Link.com,2013-06-22 08:21:00,
2013-06-22 04:37:00,60.8,58.2,30.01,West,270,0.0,-999.0,91,-99.99,,,0.00,Acu-Link.com,2013-06-22 08:37:00,
2013-06-22 04:52:00,60.6,58.0,30.01,NE,45,0.0,-999.0,91,-99.99,,,0.00,Acu-Link.com,2013-06-22 08:52:00,
2013-06-22 05:07:00,60.4,57.8,30.01,ESE,112,0.0,-999.0,91,-99.99,,,0.00,Acu-Link.com,2013-06-22 09:07:00,
2013-06-22 05:22:00,60.3,57.7,30.01,ESE,112,0.0,-999.0,91,-99.99,,,0.00,Acu-Link.com,2013-06-22 09:22:00,
2013-06-22 05:37:00,60.4,57.8,30.02,SSE,157,0.0,-999.0,91,-99.99,,,0.00,Acu-Link.com,2013-06-22 09:37:00,
2013-06-22 05:52:00,60.4,57.8,30.01,South,180,0.0,-999.0,91,-99.99,,,0.00,Acu-Link.com,2013-06-22 09:52:00,
2013-06-22 06:07:00,60.4,57.8,30.01,WSW,247,0.0,-999.0,91,-99.99,,,0.00,Acu-Link.com,2013-06-22 10:07:00,
2013-06-22 06:23:00,60.6,58.0,30.02,South,180,0.0,-999.0,91,-99.99,,,0.00,Acu-Link.com,2013-06-22 10:23:00,
2013-06-22 06:38:00,61.0,58.4,30.02,South,180,0.0,-999.0,91,-99.99,,,0.00,Acu-Link.com,2013-06-22 10:38:00,
2013-06-22 06:53:00,61.2,58.5,30.02,West,270,0.0,-999.0,91,-99.99,,,0.00,Acu-Link.com,2013-06-22 10:53:00,
2013-06-22 07:08:00,61.3,58.6,30.02,West,270,0.0,-999.0,91,-99.99,,,0.00,Acu-Link.com,2013-06-22 11:08:00,
2013-06-22 07:23:00,61.9,58.6,30.02,South,180,0.0,-999.0,89,-99.99,,,0.00,Acu-Link.com,2013-06-22 11:23:00,
2013-06-22 07:38:00,62.1,58.8,30.02,West,270,0.0,-999.0,89,-99.99,,,0.00,Acu-Link.com,2013-06-22 11:38:00,
2013-06-22 07:53:00,62.6,59.3,30.02,West,270,0.0,-999.0,89,-99.99,,,0.00,Acu-Link.com,2013-06-22 11:53:00,
2013-06-22 08:08:00,63.7,58.8,30.01,SSE,157,0.0,-999.0,84,-99.99,,,0.00,Acu-Link.com,2013-06-22 12:08:00,
2013-06-22 08:23:00,65.1,59.1,30.02,East,90,0.0,-999.0,81,-99.99,,,0.00,Acu-Link.com,2013-06-22 12:23:00,
2013-06-22 08:39:00,66.6,58.8,30.02,SSE,157,0.0,-999.0,76,-99.99,,,0.00,Acu-Link.com,2013-06-22 12:39:00,
2013-06-22 08:54:00,67.5,57.8,30.03,West,270,2.7,-999.0,71,-99.99,,,0.00,Acu-Link.com,2013-06-22 12:54:00,
2013-06-22 09:09:00,68.9,58.3,30.03,WSW,247,0.0,-999.0,69,-99.99,,,0.00,Acu-Link.com,2013-06-22 13:09:00,
2013-06-22 09:24:00,70.2,58.7,30.03,ESE,112,0.0,-999.0,67,-99.99,,,0.00,Acu-Link.com,2013-06-22 13:24:00,
2013-06-22 09:39:00,72.3,60.3,30.03,ESE,112,1.7,-999.0,66,-99.99,,,0.00,Acu-Link.com,2013-06-22 13:39:00,
2013-06-22 09:54:00,73.6,62.4,30.02,ESE,112,0.0,-999.0,68,-99.99,,,0.00,Acu-Link.com,2013-06-22 13:54:00,
2013-06-22 10:09:00,74.1,61.6,30.01,SSE,157,1.7,-999.0,65,-99.99,,,0.00,Acu-Link.com,2013-06-22 14:09:00,
2013-06-22 10:24:00,75.4,62.4,30.01,South,180,1.1,-999.0,64,-99.99,,,0.00,Acu-Link.com,2013-06-22 14:24:00,
2013-06-22 10:39:00,75.2,62.6,30.01,SSE,157,3.7,-999.0,65,-99.99,,,0.00,Acu-Link.com,2013-06-22 14:39:00,
2013-06-22 10:55:00,76.1,63.0,30.00,ESE,112,3.7,-999.0,64,-99.99,,,0.00,Acu-Link.com,2013-06-22 14:55:00,
2013-06-22 11:10:00,77.5,63.4,30.01,SE,135,2.7,-999.0,62,-99.99,,,0.00,Acu-Link.com,2013-06-22 15:10:00,
2013-06-22 11:25:00,77.5,63.9,30.00,South,180,2.2,-999.0,63,-99.99,,,0.00,Acu-Link.com,2013-06-22 15:25:00,
2013-06-22 11:40:00,79.3,64.2,30.00,SE,135,2.7,-999.0,60,-99.99,,,0.00,Acu-Link.com,2013-06-22 15:40:00,
2013-06-22 11:55:00,79.5,64.4,30.00,SSE,157,3.7,-999.0,60,-99.99,,,0.00,Acu-Link.com,2013-06-22 15:55:00,
2013-06-22 12:10:00,81.7,66.4,29.99,SSE,157,1.7,-999.0,60,-99.99,,,0.00,Acu-Link.com,2013-06-22 16:10:00,
2013-06-22 12:25:00,81.3,66.5,29.98,SSE,157,2.2,-999.0,61,-99.99,,,0.00,Acu-Link.com,2013-06-22 16:25:00,
2013-06-22 12:40:00,83.3,68.9,29.98,SSE,157,2.7,-999.0,62,-99.99,,,0.00,Acu-Link.com,2013-06-22 16:40:00,
2013-06-22 12:55:00,82.8,66.0,29.97,SSE,157,3.2,-999.0,57,-99.99,,,0.00,Acu-Link.com,2013-06-22 16:55:00,
2013-06-22 13:11:00,83.3,67.0,29.96,SE,135,3.2,-999.0,58,-99.99,,,0.00,Acu-Link.com,2013-06-22 17:11:00,
2013-06-22 13:26:00,83.3,67.9,29.96,SSE,157,1.7,-999.0,60,-99.99,,,0.00,Acu-Link.com,2013-06-22 17:26:00,
2013-06-22 13:41:00,83.7,67.3,29.95,SSE,157,2.7,-999.0,58,-99.99,,,0.00,Acu-Link.com,2013-06-22 17:41:00,
2013-06-22 13:56:00,85.5,67.5,29.95,SSE,157,2.7,-999.0,55,-99.99,,,0.00,Acu-Link.com,2013-06-22 17:56:00,
2013-06-22 14:11:00,84.7,67.2,29.94,SE,135,2.2,-999.0,56,-99.99,,,0.00,Acu-Link.com,2013-06-22 18:11:00,
2013-06-22 14:26:00,85.5,66.9,29.93,SE,135,3.2,-999.0,54,-99.99,,,0.00,Acu-Link.com,2013-06-22 18:26:00,
2013-06-22 14:41:00,85.1,67.1,29.92,ESE,112,1.7,-999.0,55,-99.99,,,0.00,Acu-Link.com,2013-06-22 18:41:00,
2013-06-22 14:56:00,86.5,68.4,29.92,SE,135,4.2,-999.0,55,-99.99,,,0.00,Acu-Link.com,2013-06-22 18:56:00,
2013-06-22 15:11:00,86.0,68.4,29.91,ESE,112,2.2,-999.0,56,-99.99,,,0.00,Acu-Link.com,2013-06-22 19:11:00,
2013-06-22 15:27:00,85.1,68.1,29.91,SSE,157,1.7,-999.0,57,-99.99,,,0.00,Acu-Link.com,2013-06-22 19:27:00,
2013-06-22 15:42:00,87.6,68.3,29.90,South,180,0.0,-999.0,53,-99.99,,,0.00,Acu-Link.com,2013-06-22 19:42:00,
2013-06-22 15:57:00,86.4,68.3,29.90,East,90,1.7,-999.0,55,-99.99,,,0.00,Acu-Link.com,2013-06-22 19:57:00,
2013-06-22 16:12:00,87.4,69.2,29.88,SSE,157,1.1,-999.0,55,-99.99,,,0.00,Acu-Link.com,2013-06-22 20:12:00,
2013-06-22 16:27:00,86.7,67.5,29.89,ESE,112,6.8,-999.0,53,-99.99,,,0.00,Acu-Link.com,2013-06-22 20:27:00,
2013-06-22 16:42:00,86.5,68.4,29.88,SE,135,3.2,-999.0,55,-99.99,,,0.00,Acu-Link.com,2013-06-22 20:42:00,
2013-06-22 16:57:00,84.2,67.8,29.87,East,90,1.1,-999.0,58,-99.99,,,0.00,Acu-Link.com,2013-06-22 20:57:00,
2013-06-22 17:12:00,84.2,67.8,29.86,SE,135,0.0,-999.0,58,-99.99,,,0.00,Acu-Link.com,2013-06-22 21:12:00,
2013-06-22 17:27:00,85.3,67.8,29.85,ESE,112,1.7,-999.0,56,-99.99,,,0.00,Acu-Link.com,2013-06-22 21:27:00,
2013-06-22 17:43:00,84.0,69.1,29.85,ESE,112,0.0,-999.0,61,-99.99,,,0.00,Acu-Link.com,2013-06-22 21:43:00,
2013-06-22 17:58:00,85.5,69.5,29.84,SE,135,0.0,-999.0,59,-99.99,,,0.00,Acu-Link.com,2013-06-22 21:58:00,
2013-06-22 18:13:00,85.6,69.1,29.84,South,180,0.0,-999.0,58,-99.99,,,0.00,Acu-Link.com,2013-06-22 22:13:00,
2013-06-22 18:28:00,85.8,69.8,29.83,SSE,157,0.0,-999.0,59,-99.99,,,0.00,Acu-Link.com,2013-06-22 22:28:00,
2013-06-22 18:43:00,84.4,69.9,29.82,ESE,112,0.0,-999.0,62,-99.99,,,0.00,Acu-Link.com,2013-06-22 22:43:00,
2013-06-22 18:58:00,86.9,70.3,29.82,SSE,157,2.2,-999.0,58,-99.99,,,0.00,Acu-Link.com,2013-06-22 22:58:00,
2013-06-22 19:13:00,89.8,71.4,29.82,East,90,2.2,-999.0,55,-99.99,,,0.00,Acu-Link.com,2013-06-22 23:13:00,
2013-06-22 19:28:00,88.7,71.5,29.83,ESE,112,1.7,-999.0,57,-99.99,,,0.00,Acu-Link.com,2013-06-22 23:28:00,
2013-06-22 19:43:00,83.8,69.8,29.84,ESE,112,0.0,-999.0,63,-99.99,,,0.00,Acu-Link.com,2013-06-22 23:43:00,
2013-06-22 19:58:00,81.5,68.6,29.84,ESE,112,0.0,-999.0,65,-99.99,,,0.00,Acu-Link.com,2013-06-22 23:58:00,
2013-06-22 20:14:00,78.8,67.3,29.84,ENE,67,0.0,-999.0,68,-99.99,,,0.00,Acu-Link.com,2013-06-23 00:14:00,
2013-06-22 20:29:00,76.6,66.5,29.85,ESE,112,0.0,-999.0,71,-99.99,,,0.00,Acu-Link.com,2013-06-23 00:29:00,
2013-06-22 20:44:00,75.0,66.1,29.86,East,90,0.0,-999.0,74,-99.99,,,0.00,Acu-Link.com,2013-06-23 00:44:00,
2013-06-22 20:59:00,73.8,65.4,29.86,East,90,0.0,-999.0,75,-99.99,,,0.00,Acu-Link.com,2013-06-23 00:59:00,
2013-06-22 21:14:00,73.2,65.2,29.86,SSE,157,0.0,-999.0,76,-99.99,,,0.00,Acu-Link.com,2013-06-23 01:14:00,
2013-06-22 21:29:00,72.5,65.6,29.87,East,90,0.0,-999.0,79,-99.99,,,0.00,Acu-Link.com,2013-06-23 01:29:00,
2013-06-22 21:44:00,72.1,65.9,29.88,West,270,1.7,-999.0,81,-99.99,,,0.00,Acu-Link.com,2013-06-23 01:44:00,
2013-06-22 21:59:00,71.4,65.6,29.88,SSE,157,0.0,-999.0,82,-99.99,,,0.00,Acu-Link.com,2013-06-23 01:59:00,
2013-06-22 22:14:00,70.5,64.7,29.89,NNE,22,2.2,-999.0,82,-99.99,,,0.00,Acu-Link.com,2013-06-23 02:14:00,
2013-06-22 22:30:00,70.0,64.9,29.90,SSE,157,1.7,-999.0,84,-99.99,,,0.00,Acu-Link.com,2013-06-23 02:30:00,
2013-06-22 22:45:00,69.8,64.7,29.91,ESE,112,0.0,-999.0,84,-99.99,,,0.00,Acu-Link.com,2013-06-23 02:45:00,
2013-06-22 23:00:00,69.3,64.3,29.91,ENE,67,0.0,-999.0,84,-99.99,,,0.00,Acu-Link.com,2013-06-23 03:00:00,
2013-06-22 23:15:00,68.5,63.8,29.91,NE,45,2.2,-999.0,85,-99.99,,,0.00,Acu-Link.com,2013-06-23 03:15:00,
2013-06-22 23:30:00,68.4,64.0,29.91,NE,45,0.0,-999.0,86,-99.99,,,0.00,Acu-Link.com,2013-06-23 03:30:00,
2013-06-22 23:45:00,67.8,63.5,29.92,NE,45,0.0,-999.0,86,-99.99,,,0.00,Acu-Link.com,2013-06-23 03:45:00,